W5SDC Weather Reports


Display with metric or nautical units.
time (UTC)temp
F
wind
direction
speed
MPH
gust
MPH
rain 1hr
in
rain 24hr
in
rain mn
in
humidity
%
barometer
mb
20260904141050 78 203 3.0 7.0 0.01 0.01 0.01 95 1016.2
20260904140518 78 222 5.0 7.0 0.01 0.01 0.01 96 1016.2
20260904140025 77 196 4.0 6.0 0.01 0.01 0.01 96 1016.2
20260904135551 77 205 4.0 5.0 0.01 0.01 0.01 96 1016.2
20260904135019 77 204 3.0 6.0 0.01 0.01 0.01 96 1016.2
20260904134526 77 217 3.0 5.0 0.01 0.01 0.01 96 1016.2
20260904134032 77 212 3.0 4.0 0.01 0.01 0.01 96 1016.2
20260904133520 77 212 3.0 4.0 0.01 0.01 0.01 96 1016.2
20260904133027 77 191 2.0 5.0 0.01 0.01 0.01 96 1016.2
20260904132533 77 208 3.0 4.0 0.01 0.01 0.01 96 1016.2
20260904132021 77 167 2.0 5.0 0.01 0.01 0.01 95 1016.2
20260904131528 77 183 2.0 4.0 0.00 0.00 0.00 95 1016.2
20260904131036 77 205 3.0 4.0 0.00 0.00 0.00 94 1016.2
20260904130523 77 153 3.0 5.0 0.00 0.00 0.00 93 1016.2
20260904130029 77 157 3.0 5.0 0.00 0.00 0.00 93 1016.2
20260904125517 77 222 1.0 3.0 0.00 0.00 0.00 93 1016.2
20260904125024 77 151 3.0 5.0 0.00 0.00 0.00 93 1016.1
20260904124530 77 146 2.0 4.0 0.00 0.00 0.00 93 1016.0
20260904124018 77 170 3.0 4.0 0.00 0.00 0.00 93 1016.0
20260904123525 77 158 4.0 7.0 0.00 0.00 0.00 93 1015.8
20260904123052 77 165 4.0 5.0 0.00 0.00 0.00 93 1015.8
20260904122519 77 159 4.0 6.0 0.00 0.00 0.00 94 1015.5
20260904122026 77 159 4.0 5.0 0.00 0.00 0.00 94 1015.5
20260904121533 77 155 4.0 6.0 0.00 0.00 0.00 94 1015.4
20260904121021 77 184 4.0 6.0 0.00 0.00 0.00 94 1015.3
20260904120547 77 173 5.0 8.0 0.00 0.00 0.00 94 1015.2
20260904120015 77 188 5.0 8.0 0.00 0.00 0.00 94 1015.0
20260904115522 77 157 6.0 9.0 0.00 0.00 0.00 94 1015.0
20260904115028 77 162 5.0 8.0 0.00 0.00 0.00 94 1015.0
20260904114557 77 177 5.0 9.0 0.00 0.00 0.00 94 1014.9
20260904114023 77 175 5.0 7.0 0.00 0.00 0.00 94 1014.9
20260904113529 77 186 5.0 8.0 0.00 0.00 0.00 94 1014.7
20260904113018 77 165 5.0 9.0 0.00 0.00 0.00 93 1014.7
20260904112544 77 203 6.0 7.0 0.00 0.00 0.00 93 1014.6
20260904112030 77 143 6.0 9.0 0.00 0.00 0.00 93 1014.6
20260904111519 77 160 5.0 7.0 0.00 0.00 0.00 93 1014.6
20260904111025 77 147 4.0 6.0 0.00 0.00 0.00 93 1014.6
20260904110532 77 178 3.0 4.0 0.00 0.00 0.00 93 1014.6
20260904110020 77 177 3.0 5.0 0.00 0.00 0.00 93 1014.6
20260904105526 77 167 4.0 8.0 0.00 0.00 0.00 93 1014.6
20260904105033 77 168 4.0 6.0 0.00 0.00 0.00 93 1014.5
20260904104521 77 208 6.0 8.0 0.00 0.00 0.00 93 1014.5
20260904104027 77 195 6.0 8.0 0.00 0.00 0.00 93 1014.5
20260904103516 77 174 4.0 9.0 0.00 0.00 0.00 93 1014.4
20260904103022 77 173 4.0 5.0 0.00 0.00 0.00 93 1014.4
20260904102529 77 161 6.0 8.0 0.00 0.00 0.00 93 1014.3
20260904102037 77 173 4.0 6.0 0.00 0.00 0.00 92 1014.3
20260904101544 77 166 5.0 8.0 0.00 0.00 0.00 92 1014.3
20260904101030 77 169 5.0 9.0 0.00 0.00 0.00 92 1014.3
20260904100538 77 158 5.0 7.0 0.00 0.00 0.00 92 1014.3
20260904100024 77 189 5.0 7.0 0.00 0.00 0.00 92 1014.2
20260904095531 77 195 5.0 7.0 0.00 0.00 0.00 92 1014.2
20260904095040 77 178 6.0 9.0 0.00 0.00 0.00 92 1014.1
20260904094526 77 180 6.0 8.0 0.00 0.00 0.00 92 1014.1
20260904094032 77 182 5.0 8.0 0.00 0.00 0.00 91 1014.1
20260904093520 77 195 5.0 7.0 0.00 0.00 0.00 91 1014.2
20260904093027 77 204 5.0 7.0 0.00 0.00 0.00 91 1014.2
20260904092515 77 186 7.0 10.0 0.00 0.00 0.00 91 1014.2
20260904092021 77 222 7.0 10.0 0.00 0.00 0.00 91 1014.2
20260904091528 77 191 7.0 9.0 0.00 0.00 0.00 91 1014.2
20260904091016 78 172 7.0 13.0 0.00 0.00 0.00 91 1014.1
20260904090523 78 189 7.0 10.0 0.00 0.00 0.00 90 1014.1
20260904090029 78 202 7.0 12.0 0.00 0.00 0.00 90 1014.2
20260904085517 78 210 8.0 12.0 0.00 0.00 0.00 90 1014.2
20260904085024 78 205 7.0 10.0 0.00 0.00 0.00 90 1014.2
20260904084550 78 210 5.0 9.0 0.00 0.00 0.00 89 1014.2
20260904084019 78 176 7.0 10.0 0.00 0.00 0.00 89 1014.2
20260904083546 78 174 6.0 9.0 0.00 0.00 0.00 89 1014.3
20260904083052 78 164 7.0 10.0 0.00 0.00 0.00 89 1014.3
20260904082520 78 181 7.0 10.0 0.00 0.00 0.00 89 1014.3
20260904082026 78 154 5.0 8.0 0.00 0.00 0.00 89 1014.3
20260904081533 78 194 7.0 11.0 0.00 0.00 0.00 89 1014.3
20260904081021 78 213 5.0 9.0 0.00 0.00 0.00 89 1014.2
20260904080528 78 178 6.0 9.0 0.00 0.00 0.00 89 1014.2
20260904080016 78 152 7.0 9.0 0.00 0.00 0.00 89 1014.2
20260904075522 78 173 7.0 12.0 0.00 0.00 0.00 89 1014.2
20260904075029 78 187 8.0 10.0 0.00 0.00 0.00 89 1014.3
20260904074517 78 206 7.0 11.0 0.00 0.00 0.00 89 1014.3
20260904074023 78 181 8.0 14.0 0.00 0.00 0.00 89 1014.3
20260904073610 78 181 7.0 11.0 0.00 0.00 0.00 89 1014.3
20260904073018 78 175 6.0 11.0 0.00 0.00 0.00 89 1014.3
20260904072525 78 167 6.0 10.0 0.00 0.00 0.00 89 1014.5
20260904072031 78 167 9.0 13.0 0.00 0.00 0.00 89 1014.5
20260904071519 78 161 8.0 10.0 0.00 0.00 0.00 89 1014.5
20260904071026 78 189 7.0 12.0 0.00 0.00 0.00 88 1014.5
20260904070532 78 188 7.0 11.0 0.00 0.00 0.00 88 1014.5
20260904070021 78 150 9.0 12.0 0.00 0.00 0.00 88 1014.6
20260904065527 78 174 8.0 11.0 0.00 0.00 0.00 88 1014.6
20260904065136 78 171 7.0 10.0 0.00 0.00 0.00 88 1014.7
20260904064522 78 171 7.0 11.0 0.00 0.00 0.00 87 1014.7
20260904064028 78 188 7.0 12.0 0.00 0.00 0.00 87 1014.7
20260904063516 78 184 7.0 11.0 0.00 0.00 0.00 87 1014.5
20260904063043 78 154 8.0 13.0 0.00 0.00 0.00 87 1014.5
20260904062529 78 216 9.0 11.0 0.00 0.00 0.00 87 1014.6
20260904062038 78 161 6.0 9.0 0.00 0.00 0.00 87 1014.6
20260904061524 78 171 7.0 11.0 0.00 0.00 0.00 86 1014.6
20260904061031 78 186 8.0 11.0 0.00 0.00 0.00 86 1014.6
20260904060519 78 164 8.0 13.0 0.00 0.00 0.00 86 1014.6
20260904060025 78 169 7.0 10.0 0.00 0.00 0.00 86 1014.6
20260904055532 78 175 8.0 12.0 0.00 0.00 0.00 86 1014.6
20260904055020 78 157 9.0 11.0 0.00 0.00 0.00 86 1014.6
20260904054527 78 170 7.0 9.0 0.00 0.00 0.00 85 1014.6
20260904054015 78 147 10.0 15.0 0.00 0.00 0.00 85 1014.6
20260904053542 78 172 7.0 9.0 0.00 0.00 0.00 85 1014.4
20260904053028 78 162 8.0 12.0 0.00 0.00 0.00 85 1014.4
20260904052536 78 185 8.0 12.0 0.00 0.00 0.00 85 1014.3
20260904052023 78 180 8.0 12.0 0.00 0.00 0.00 85 1014.3
20260904051609 78 184 8.0 11.0 0.00 0.00 0.00 85 1014.3
20260904051017 78 169 7.0 10.0 0.00 0.00 0.00 85 1014.3
20260904050524 78 163 8.0 10.0 0.00 0.00 0.00 84 1014.3
20260904050031 78 168 8.0 11.0 0.00 0.00 0.00 84 1014.4
20260904045519 78 183 6.0 11.0 0.00 0.00 0.00 84 1014.4
20260904045025 78 176 7.0 15.0 0.00 0.00 0.00 84 1014.3
20260904044532 78 157 9.0 12.0 0.00 0.00 0.00 84 1014.3
20260904044020 79 175 7.0 10.0 0.00 0.00 0.00 84 1014.3
20260904043527 79 170 7.0 12.0 0.00 0.00 0.00 83 1014.3
20260904043033 79 147 7.0 9.0 0.00 0.00 0.00 83 1014.3
20260904042521 79 168 8.0 11.0 0.00 0.00 0.00 83 1014.4
20260904042027 79 149 8.0 10.0 0.00 0.00 0.00 83 1014.4
20260904041516 79 167 8.0 12.0 0.00 0.00 0.00 83 1014.4
20260904041023 79 181 7.0 12.0 0.00 0.00 0.00 83 1014.3
20260904040549 79 159 8.0 12.0 0.00 0.00 0.00 82 1014.3
20260904040017 79 173 7.0 11.0 0.00 0.00 0.00 82 1014.2
20260904035524 79 158 5.0 8.0 0.00 0.00 0.00 82 1014.2
20260904035030 79 131 7.0 9.0 0.00 0.00 0.00 82 1014.3
20260904034518 79 148 6.0 9.0 0.00 0.00 0.00 82 1014.3
20260904034045 79 146 8.0 9.0 0.00 0.00 0.00 81 1014.2
20260904033531 79 146 5.0 7.0 0.00 0.00 0.00 81 1014.1
20260904033019 79 156 7.0 12.0 0.00 0.00 0.00 81 1014.1
20260904032526 79 142 6.0 9.0 0.00 0.00 0.00 81 1013.9
20260904032032 79 155 8.0 12.0 0.00 0.00 0.00 80 1013.9
20260904031520 80 138 8.0 11.0 0.00 0.00 0.00 80 1013.9
20260904031027 80 155 8.0 12.0 0.00 0.00 0.00 80 1014.0
20260904030515 80 140 8.0 10.0 0.00 0.00 0.00 79 1014.0
20260904030022 80 156 7.0 12.0 0.00 0.00 0.00 79 1013.8
20260904025528 80 120 8.0 10.0 0.00 0.00 0.00 78 1013.8
20260904025016 80 135 8.0 11.0 0.00 0.00 0.00 78 1013.7
20260904024523 80 153 10.0 16.0 0.00 0.00 0.00 77 1013.6
20260904024029 80 125 8.0 11.0 0.00 0.00 0.00 76 1013.6
20260904023518 81 158 9.0 15.0 0.00 0.00 0.00 75 1013.5
20260904023024 81 154 6.0 9.0 0.00 0.00 0.00 75 1013.5
20260904022530 81 144 5.0 8.0 0.00 0.00 0.00 74 1013.3
20260904022018 81 176 7.0 12.0 0.00 0.00 0.00 74 1013.3
20260904021525 82 149 8.0 13.0 0.00 0.00 0.00 73 1013.2
20260904021052 82 133 7.0 9.0 0.00 0.00 0.00 73 1013.2
20260904020520 82 154 7.0 12.0 0.00 0.00 0.00 73 1013.2
20260904020046 82 151 6.0 12.0 0.00 0.00 0.00 73 1013.2
20260904015532 82 165 6.0 9.0 0.00 0.00 0.00 73 1013.2
20260904015020 82 126 5.0 7.0 0.00 0.00 0.00 73 1013.1
20260904014547 82 131 6.0 10.0 0.00 0.00 0.00 72 1013.1
20260904014035 82 135 6.0 9.0 0.00 0.00 0.00 72 1013.0
20260904013522 83 140 8.0 13.0 0.00 0.00 0.00 72 1012.9
20260904013028 83 137 7.0 11.0 0.00 0.00 0.00 72 1012.9
20260904012557 83 146 8.0 11.0 0.00 0.00 0.00 71 1012.8
20260904012023 83 152 7.0 12.0 0.00 0.00 0.00 71 1012.7
20260904011529 83 134 6.0 9.0 0.00 0.00 0.00 71 1012.7
20260904011017 83 117 7.0 11.0 0.00 0.00 0.00 70 1012.7
20260904010544 84 175 9.0 13.0 0.00 0.00 0.00 70 1012.7
20260904010031 84 149 8.0 11.0 0.00 0.00 0.00 69 1012.7
20260904005539 84 140 11.0 14.0 0.00 0.00 0.00 69 1012.7
20260904005026 84 160 9.0 14.0 0.00 0.00 0.00 69 1012.6
20260904004532 85 135 8.0 11.0 0.00 0.00 0.00 69 1012.6
20260904004020 85 138 9.0 15.0 0.00 0.00 0.00 69 1012.6
20260904003526 85 144 9.0 13.0 0.00 0.00 0.00 69 1012.7
20260904003033 86 128 7.0 10.0 0.00 0.00 0.00 69 1012.7
20260904002521 86 155 9.0 13.0 0.00 0.00 0.00 68 1012.5
20260904002028 86 149 8.0 12.0 0.00 0.00 0.00 68 1012.4
20260904001516 87 131 8.0 15.0 0.00 0.00 0.00 68 1012.4
20260904001023 87 164 8.0 12.0 0.00 0.00 0.00 68 1012.4
20260904000529 87 161 7.0 10.0 0.00 0.00 0.00 68 1012.4
20260904000017 87 161 9.0 14.0 0.00 0.00 0.00 67 1012.4
20260903235523 87 148 10.0 14.0 0.00 0.00 0.00 67 1012.4
20260903235030 88 141 10.0 18.0 0.00 0.00 0.00 67 1012.3
20260903234518 88 122 8.0 11.0 0.00 0.00 0.00 67 1012.2
20260903234025 88 149 10.0 15.0 0.00 0.00 0.00 67 1012.2
20260903233531 89 140 10.0 13.0 0.00 0.00 0.00 67 1012.2
20260903233019 89 115 10.0 13.0 0.00 0.00 0.00 66 1012.2
20260903232526 89 145 10.0 16.0 0.00 0.00 0.00 66 1012.1
20260903232032 90 142 9.0 13.0 0.00 0.00 0.00 66 1012.0
20260903231520 90 130 9.0 12.0 0.00 0.00 0.00 67 1012.0
20260903231027 90 126 10.0 13.0 0.00 0.00 0.00 67 1012.0
20260903230515 91 107 9.0 18.0 0.00 0.00 0.00 66 1012.0
20260903230022 92 137 12.0 17.0 0.00 0.00 0.00 65 1011.7
20260903225528 93 124 11.0 19.0 0.00 0.00 0.00 62 1011.7
20260903225016 93 122 9.0 12.0 0.00 0.00 0.00 60 1011.7
20260903224523 93 130 10.0 14.0 0.00 0.00 0.00 60 1011.7
20260903224049 94 121 10.0 15.0 0.00 0.00 0.00 58 1011.7
20260903223517 95 93 10.0 14.0 0.00 0.00 0.00 57 1011.7
20260903223023 95 120 7.0 11.0 0.00 0.00 0.00 56 1011.7
20260903222530 94 135 10.0 13.0 0.00 0.00 0.00 56 1011.5
20260903222018 94 123 9.0 13.0 0.00 0.00 0.00 56 1011.5
20260903221525 94 138 10.0 16.0 0.00 0.00 0.00 55 1011.5
20260903221032 95 135 10.0 15.0 0.00 0.00 0.00 55 1011.5
20260903220519 95 131 11.0 15.0 0.00 0.00 0.00 55 1011.5
20260903220026 95 172 9.0 13.0 0.00 0.00 0.00 54 1011.7
20260903215532 97 146 8.0 12.0 0.00 0.00 0.00 53 1011.7
20260903215020 96 141 8.0 10.0 0.00 0.00 0.00 54 1011.7
20260903214527 96 108 7.0 13.0 0.00 0.00 0.00 54 1011.7
20260903214015 95 132 7.0 11.0 0.00 0.00 0.00 54 1011.7
20260903213521 95 102 7.0 11.0 0.00 0.00 0.00 53 1011.8
20260903213048 96 142 7.0 9.0 0.00 0.00 0.00 53 1011.8
20260903212516 96 105 7.0 10.0 0.00 0.00 0.00 52 1011.8
20260903212023 97 125 9.0 12.0 0.00 0.00 0.00 51 1011.8
20260903211549 98 134 7.0 10.0 0.00 0.00 0.00 49 1011.9
20260903211018 99 106 8.0 11.0 0.00 0.00 0.00 49 1011.9
20260903210524 98 117 7.0 11.0 0.00 0.00 0.00 50 1011.9
20260903210030 99 144 8.0 11.0 0.00 0.00 0.00 49 1012.0
20260903205518 98 166 7.0 9.0 0.00 0.00 0.00 49 1012.0
20260903205045 99 190 8.0 11.0 0.00 0.00 0.00 49 1012.2
20260903204531 99 158 8.0 12.0 0.00 0.00 0.00 49 1012.2
20260903204024 97 131 7.0 10.0 0.00 0.00 0.00 50 1012.3
20260903203526 97 114 8.0 12.0 0.00 0.00 0.00 50 1012.4
20260903203032 98 133 9.0 13.0 0.00 0.00 0.00 50 1012.4
20260903202520 97 123 7.0 12.0 0.00 0.00 0.00 50 1012.5
20260903202027 98 108 8.0 9.0 0.00 0.00 0.00 49 1012.6
20260903201533 99 142 7.0 10.0 0.00 0.00 0.00 48 1012.6
20260903201021 100 114 7.0 11.0 0.00 0.00 0.00 48 1012.7
20260903200548 99 110 6.0 12.0 0.00 0.00 0.00 49 1012.7
20260903200016 97 74 7.0 10.0 0.00 0.00 0.00 50 1012.7
20260903195522 99 94 6.0 9.0 0.00 0.00 0.00 49 1012.7
20260903195028 99 126 7.0 10.0 0.00 0.00 0.00 50 1012.9
20260903194517 97 150 7.0 10.0 0.00 0.00 0.00 51 1012.9
20260903194023 96 107 5.0 7.0 0.00 0.00 0.00 52 1013.0
20260903193610 96 139 6.0 8.0 0.00 0.00 0.00 53 1013.1
20260903193018 96 75 6.0 8.0 0.00 0.00 0.00 53 1013.1
20260903192524 96 118 6.0 10.0 0.00 0.00 0.00 53 1013.2
20260903192031 95 177 5.0 7.0 0.00 0.00 0.00 54 1013.3
20260903191518 96 139 6.0 9.0 0.00 0.00 0.00 53 1013.4
20260903191146 96 122 6.0 9.0 0.00 0.00 0.00 52 1013.6
20260903190532 96 153 6.0 9.0 0.00 0.00 0.00 52 1013.6
20260903190024 96 149 6.0 10.0 0.00 0.00 0.00 52 1013.7
20260903185525 96 135 7.0 10.0 0.00 0.00 0.00 52 1013.7
20260903185051 96 126 5.0 9.0 0.00 0.00 0.00 53 1013.9
20260903184540 96 143 5.0 9.0 0.00 0.00 0.00 53 1014.0
20260903184106 95 155 5.0 8.0 0.00 0.00 0.00 53 1014.1
20260903183532 96 169 4.0 7.0 0.00 0.00 0.00 53 1014.2
20260903183020 96 183 7.0 11.0 0.00 0.00 0.00 53 1014.2
20260903182527 96 124 6.0 10.0 0.00 0.00 0.00 52 1014.3
20260903182015 96 160 5.0 7.0 0.00 0.00 0.00 53 1014.3
20260903181521 96 140 6.0 8.0 0.00 0.00 0.00 52 1014.4
20260903181028 96 129 4.0 6.0 0.00 0.00 0.00 51 1014.5
20260903180516 96 181 6.0 11.0 0.00 0.00 0.00 51 1014.5
20260903180023 96 176 5.0 7.0 0.00 0.00 0.00 52 1014.6
20260903175529 96 142 4.0 9.0 0.00 0.00 0.00 52 1014.6
20260903175017 96 210 5.0 8.0 0.00 0.00 0.00 52 1014.6
20260903174524 97 211 6.0 9.0 0.00 0.00 0.00 52 1014.6
20260903174030 97 170 6.0 9.0 0.00 0.00 0.00 51 1014.6
20260903173519 96 149 5.0 9.0 0.00 0.00 0.00 51 1014.7
20260903173025 95 191 5.0 6.0 0.00 0.00 0.00 53 1014.7
20260903172531 94 170 6.0 7.0 0.00 0.00 0.00 54 1014.8
20260903172019 95 158 7.0 9.0 0.00 0.00 0.00 53 1014.8
20260903171526 96 163 5.0 9.0 0.00 0.00 0.00 53 1014.8
20260903171033 96 182 6.0 9.0 0.00 0.00 0.00 53 1014.8
20260903170521 97 203 6.0 9.0 0.00 0.00 0.00 53 1014.8
20260903170027 96 200 6.0 8.0 0.00 0.00 0.00 54 1014.9
20260903165535 95 189 8.0 11.0 0.00 0.00 0.00 54 1014.9
20260903165021 94 184 7.0 11.0 0.00 0.00 0.00 55 1015.0
20260903164548 93 201 7.0 13.0 0.00 0.00 0.00 56 1015.0
20260903164036 93 193 10.0 14.0 0.00 0.00 0.00 56 1015.0
20260903163522 92 226 8.0 11.0 0.00 0.00 0.00 58 1015.0
20260903163029 90 206 8.0 12.0 0.00 0.00 0.00 61 1015.0
20260903162517 89 208 8.0 10.0 0.00 0.00 0.00 62 1014.9
20260903162023 89 227 8.0 11.0 0.00 0.00 0.00 63 1014.9
20260903161529 89 195 8.0 10.0 0.00 0.00 0.00 65 1014.9
20260903161018 89 193 7.0 10.0 0.00 0.00 0.00 65 1014.9
20260903160524 89 185 7.0 9.0 0.00 0.00 0.00 65 1014.9
20260903160031 90 195 8.0 13.0 0.00 0.00 0.00 65 1014.9
20260903155519 89 196 8.0 12.0 0.00 0.00 0.00 66 1014.9
20260903155025 89 190 8.0 15.0 0.00 0.00 0.00 66 1015.0
20260903154551 89 212 9.0 13.0 0.00 0.00 0.00 67 1015.0
20260903154020 88 179 9.0 13.0 0.00 0.00 0.00 69 1015.0
20260903153526 88 224 10.0 14.0 0.00 0.00 0.00 70 1015.0
20260903153033 88 214 9.0 13.0 0.00 0.00 0.00 71 1015.0
20260903152541 86 219 7.0 9.0 0.00 0.00 0.00 72 1014.9
20260903152027 86 195 8.0 12.0 0.00 0.00 0.00 73 1014.9
20260903151516 86 204 7.0 11.0 0.00 0.00 0.00 74 1014.9
20260903151022 85 224 8.0 12.0 0.00 0.00 0.00 74 1014.9
20260903150529 86 202 8.0 11.0 0.00 0.00 0.00 73 1014.9
20260903150017 86 205 9.0 13.0 0.00 0.00 0.00 73 1014.8
20260903145523 87 210 10.0 13.0 0.00 0.00 0.00 73 1014.8
20260903145030 86 198 8.0 12.0 0.00 0.00 0.00 74 1014.9
20260903144518 86 221 9.0 15.0 0.00 0.00 0.00 75 1014.9
20260903144024 85 202 8.0 11.0 0.00 0.00 0.00 76 1014.9
20260903143530 84 212 9.0 14.0 0.00 0.00 0.00 78 1014.9
20260903143019 84 183 10.0 13.0 0.00 0.00 0.00 78 1014.9
20260903142545 84 209 10.0 17.0 0.00 0.00 0.00 78 1014.8
20260903142032 83 205 9.0 12.0 0.00 0.00 0.00 80 1014.8
20260903141520 83 209 9.0 11.0 0.00 0.00 0.00 81 1014.8